Startseite
Über Mich
AHP4
Galerie
Sehschlangen
Tourenbuch
Bookmarks
Elektronik
Bewertung
Geschichten
[Tagesmessung] [Jahreswerte] [Information]

Messwerte vom 08.03.2022

Die letzten Messwerte von 23:58:46 Uhr:
KategorieMesswert
Temperatur [°C]-2
Luftdruck [mBar]1009
Sonneneinstrahlung0
Wind [km/h]0 aus Ost
Niederschlag [l/m²]0
rel.Luftfeucht.81.6%
CO2 [ppm]571

Diagramme
Messwerte vom 08.03.2022
Tagesaggregation
KategorieMinimumMaximumSchnittSumme
Temperatur [°C]-5152.1822
Luftdruck [mBar]100810111009.4447
Sonneneinstrahlung247100.8373
Wind [km/h]0
rF [%]34.994.471.09
Niederschlag [l/m²]0
CO2 [ppm]401834598.0
Einordnung alsFrosttag
Vegetationstag

Messungen an benachbarten Tagen: Zur Jahresaggregation 2022
Tabelle aller Messwerte
UhrzeitTemperatur [°C]Luftdruck [mBar]SonneWind [km/h]RichtungRegen [l/m²]rF [%]CO2 [ppm]
00:01:49 -3 1010 0 0 SO 0 85.4 668
00:04:50 -3 1010 0 0 SO 0 85.8 662
00:07:48 -3 1010 0 0 SO 0 85.5 679
00:10:48 -3 1010 0 0 SO 0 85.5 683
00:13:47 -3 1010 0 0 SO 0 85.8 685
00:16:50 -3 1010 0 0 SO 0 86.1 682
00:19:49 -3 1010 0 0 SO 0 86.2 676
00:22:47 -3 1010 0 0 SO 0 86 675
00:25:49 -3 1010 0 0 SO 0 86 669
00:28:48 -3 1010 0 0 SO 0 86.2 670
00:31:47 -3 1011 0 0 SO 0 86.5 665
00:34:48 -3 1010 0 0 SO 0 86.5 674
00:37:47 -3 1010 0 0 SO 0 86.7 682
00:40:47 -3 1010 0 0 SO 0 86.9 685
00:43:47 -3 1010 0 0 SO 0 87.1 673
00:46:46 -3 1010 0 0 SO 0 86.8 675
00:49:47 -3 1010 0 0 SO 0 86.8 671
00:52:49 -3 1010 0 0 SO 0 87 678
00:55:46 -3 1010 0 0 N 0 87.7 679
00:58:47 -3 1010 0 0 N 0 88.1 679
01:01:46 -3 1010 0 0 N 0 87.8 674
01:04:46 -3 1011 0 0 N 0 87.5 665
01:07:47 -3 1010 0 0 N 0 87.4 669
01:10:46 -4 1010 0 0 N 0 87.3 667
01:13:45 -4 1010 0 0 N 0 87.3 674
01:16:45 -4 1010 0 0 N 0 87.3 679
01:19:45 -4 1010 0 0 N 0 87.6 674
01:22:45 -4 1010 0 0 N 0 87.8 676
01:25:45 -4 1010 0 0 N 0 88.1 664
01:28:46 -4 1010 0 0 N 0 88.1 671
01:31:46 -4 1010 0 0 N 0 88.4 674
01:34:47 -4 1010 0 0 N 0 89 680
01:37:45 -4 1010 0 0 N 0 89.4 671
01:40:47 -3 1009 0 0 N 0 89.7 674
01:43:46 -3 1010 0 0 N 0 89.8 676
01:46:44 -3 1010 0 0 N 0 89.8 672
01:49:47 -4 1010 0 0 O 0 89.9 673
01:52:45 -4 1010 0 0 O 0 89.9 672
01:55:46 -4 1010 0 0 O 0 89.9 674
01:58:45 -4 1010 0 0 O 0 90 674
02:01:46 -4 1010 0 0 O 0 90.1 676
02:04:48 -4 1010 0 0 O 0 90 682
02:07:47 -4 1010 0 0 O 0 90 679
02:10:48 -4 1010 0 0 O 0 90 673
02:13:45 -4 1010 0 0 O 0 90 673
02:16:47 -4 1010 0 0 O 0 90 668
03:01:48 -4 1010 0 0 O 0 90.7 669
03:04:46 -4 1010 0 0 O 0 90.7 667
03:07:46 -4 1010 0 0 O 0 90.7 670
03:10:48 -4 1010 0 0 O 0 90.8 669
03:13:49 -4 1010 0 0 S 0 90.8 664
03:16:47 -4 1010 0 0 S 0 90.8 659
03:34:46 -4 1010 0 0 S 0 91 671
03:37:45 -4 1010 0 0 S 0 91.1 673
03:40:47 -4 1010 0 0 O 0 91.2 674
03:43:46 -4 1010 0 0 O 0 91.2 671
03:46:46 -4 1010 0 0 O 0 91.2 668
03:49:46 -4 1010 0 0 O 0 91.2 668
03:52:44 -4 1010 0 0 O 0 91.1 660
03:55:45 -4 1010 0 0 O 0 91.1 665
03:58:45 -4 1010 0 0 O 0 91.2 667
04:01:46 -4 1010 0 0 O 0 91.3 662
04:04:45 -4 1010 0 0 O 0 91.4 659
04:07:48 -4 1010 0 0 SO 0 91.4 656
04:10:48 -4 1010 0 0 SO 0 91.5 658
04:13:48 -4 1010 0 0 SO 0 91.6 652
04:16:47 -4 1010 0 0 SO 0 91.5 659
04:19:48 -4 1010 0 0 SO 0 91.5 656
04:22:50 -4 1010 0 0 SO 0 91.8 659
04:25:49 -4 1010 0 0 SO 0 91.8 654
04:28:47 -4 1010 0 0 SO 0 91.8 659
04:31:46 -4 1010 0 0 SO 0 91.9 661
04:34:47 -4 1010 0 0 SO 0 91.8 662
04:37:48 -5 1010 0 0 SO 0 91.9 662
04:40:47 -5 1010 0 0 SO 0 91.8 667
04:43:46 -5 1010 0 0 SO 0 91.7 656
04:46:47 -5 1010 0 0 SO 0 91.6 653
04:49:47 -5 1010 0 0 SO 0 91.6 641
04:52:46 -5 1010 0 0 SO 0 91.6 642
04:55:50 -5 1010 0 0 SO 0 91.6 641
04:58:47 -5 1010 0 0 SO 0 91.6 646
05:01:49 -5 1010 0 0 SO 0 91.6 648
05:04:49 -5 1010 0 0 SO 0 91.6 648
05:07:47 -5 1010 0 0 SO 0 91.6 647
05:10:46 -5 1010 0 0 SO 0 91.7 654
05:13:45 -5 1010 0 0 SO 0 91.7 655
05:16:47 -5 1010 0 0 SO 0 91.6 653
05:19:47 -5 1010 0 0 SO 0 91.6 653
05:22:47 -5 1010 0 0 SO 0 91.7 649
05:25:47 -5 1009 0 0 SO 0 91.9 648
05:28:47 -5 1010 0 0 SO 0 92.1 656
05:31:49 -5 1010 0 0 SO 0 92.4 659
05:34:48 -4 1010 0 0 NW 0 92.8 656
05:37:46 -4 1010 0 0 O 0 93.8 656
05:40:46 -4 1010 0 0 O 0 94.4 656
05:43:46 -4 1010 0 0 O 0 94.2 657
05:46:47 -4 1010 0 0 O 0 93.9 656
05:49:47 -4 1010 0 0 O 0 93.7 653
05:52:48 -4 1010 0 0 O 0 93.4 653
05:55:47 -5 1010 0 0 S 0 93 641
05:58:48 -5 1010 0 0 SO 0 92.9 650
06:01:47 -5 1010 0 0 N 0 93 650
06:04:46 -5 1010 0 0 N 0 93 653
06:07:46 -5 1010 0 0 N 0 93 654
06:10:45 -5 1010 0 0 N 0 92.9 649
06:13:45 -5 1010 0 0 N 0 92.8 646
06:16:46 -5 1010 0 0 N 0 92.9 635
06:19:47 -5 1010 0 0 N 0 93 645
06:22:46 -5 1010 3 0 N 0 93 648
06:25:49 -5 1010 5 0 N 0 93 648
06:28:46 -5 1010 9 0 N 0 93.3 641
06:31:46 -5 1010 15 0 N 0 93.9 635
06:34:45 -5 1010 23 0 N 0 93.8 641
06:37:47 -5 1010 34 0 N 0 93.5 647
06:40:46 -5 1010 46 0 N 0 93.4 653
06:43:46 -5 1010 60 0 N 0 93.2 650
06:46:46 -5 1010 74 0 N 0 93.2 650
06:49:47 -5 1010 87 0 N 0 93.3 645
06:52:46 -5 1010 99 0 N 0 93.1 653
06:55:48 -5 1010 111 0 N 0 93.1 653
06:58:49 -5 1010 121 0 N 0 93.1 659
07:01:47 -5 1010 129 0 N 0 93.1 656
07:04:47 -5 1010 137 0 N 0 93.1 644
07:07:48 -5 1010 143 0 N 0 93.2 646
07:10:47 -5 1010 149 0 N 0 93.3 650
07:13:48 -5 1010 154 0 N 0 93.3 644
07:16:47 -5 1010 157 0 N 0 93.5 645
07:19:46 -5 1010 160 0 N 0 93.6 638
07:22:49 -4 1010 163 0 N 0 93.6 659
07:25:46 -4 1010 166 0 N 0 93.5 668
07:28:46 -4 1010 168 0 N 0 93.5 675
07:31:46 -4 1010 170 0 N 0 93.4 685
07:34:49 -5 1010 172 0 N 0 93.3 690
07:37:48 -4 1010 173 0 N 0 93.4 690
07:40:46 -4 1010 175 0 N 0 93.5 693
07:43:47 -4 1010 176 0 N 0 93.7 700
07:46:45 -4 1010 177 0 N 0 93.5 709
07:49:49 -4 1010 178 0 N 0 93.5 708
07:52:45 -4 1010 179 0 N 0 93.4 703
07:55:48 -4 1010 180 0 N 0 93.4 699
07:58:48 -4 1010 180 0 N 0 93.4 694
08:01:48 -4 1010 181 0 N 0 93.5 702
08:04:47 -4 1010 182 0 N 0 93.4 705
08:07:49 -4 1010 182 0 N 0 93.5 711
08:10:46 -4 1010 183 0 N 0 93.5 711
08:13:47 -3 1010 183 0 N 0 93.4 711
08:16:47 -3 1010 184 0 N 0 93.3 711
08:19:49 -3 1010 184 0 SO 0 93.4 711
08:22:47 -3 1010 184 0 SO 0 93.4 713
08:25:48 -3 1010 185 0 NO 0 93.4 714
08:28:49 -3 1010 185 0 NO 0 93.5 723
08:31:48 -2 1010 185 0 NO 0 93.6 714
08:34:47 -2 1010 186 0 NO 0 93.8 714
08:37:49 -2 1010 186 0 NO 0 94.1 713
08:40:48 -2 1010 186 0 NO 0 94 714
08:43:49 -2 1010 186 0 NO 0 93.8 708
08:46:48 -1 1010 186 0 NO 0 93.8 717
08:49:49 -1 1010 187 0 NO 0 93.4 723
08:52:48 -1 1010 187 0 NO 0 93.5 723
08:55:49 -1 1010 187 0 NO 0 93.3 727
08:58:47 -1 1010 187 0 NO 0 93.1 723
09:01:51 -1 1010 188 0 NO 0 92.8 727
09:04:49 0 1010 188 0 N 0 92.7 734
09:07:47 0 1010 188 0 O 0 92.8 741
09:10:49 0 1010 188 0 NO 0 92.7 743
09:13:49 0 1010 188 0 NO 0 92.6 747
09:16:46 1 1010 188 0 NO 0 92.4 756
09:19:49 1 1010 188 0 NO 0 91.2 755
09:22:48 1 1010 188 0 NO 0 90.3 757
09:25:48 1 1010 189 0 S 0 89.8 755
09:28:47 1 1010 189 0 N 0 89.3 753
09:31:48 1 1010 189 0 SO 0 88.8 764
09:34:46 1 1010 189 0 S 0 88.7 773
09:37:51 2 1010 189 0 SW 0 87.9 779
09:40:47 2 1010 190 0 SO 0 87.8 782
09:43:47 2 1010 190 0 W 0 87.2 783
09:46:48 2 1010 190 0 O 0 86.9 779
09:49:48 2 1010 191 0 SO 0 85.6 792
09:52:50 2 1010 191 0 SO 0 84.8 796
09:55:47 2 1010 192 0 N 0 84.3 794
09:58:50 3 1010 193 0 SO 0 83.7 794
10:01:49 3 1010 195 0 NW 0 83.2 794
10:04:49 3 1010 196 0 SW 0 82.1 795
10:07:46 3 1010 197 0 S 0 81.5 797
10:10:49 3 1010 198 0 SO 0 81.3 796
10:13:49 3 1010 199 0 SO 0 80.5 791
10:16:47 4 1010 199 0 NO 0 79.8 798
10:19:48 4 1010 200 0 SO 0 78.1 801
10:22:49 4 1010 200 0 SO 0 78.3 795
10:25:47 4 1010 200 0 S 0 77.9 791
10:28:48 4 1010 200 0 O 0 74.6 784
10:31:47 4 1010 200 0 SW 0 73.9 794
10:34:49 4 1010 201 0 SO 0 74.5 808
10:37:50 4 1010 201 0 NO 0 71.6 815
10:40:48 4 1010 201 0 SO 0 71.3 820
10:43:48 5 1010 201 0 N 0 71.3 820
10:46:49 5 1010 201 0 SO 0 71 830
10:49:48 5 1010 201 0 SO 0 69.9 834
10:52:47 5 1010 201 0 S 0 69.4 833
10:55:49 5 1010 201 0 SO 0 69 823
10:58:46 5 1010 201 0 S 0 69.7 818
11:01:47 5 1010 201 0 SO 0 69.4 814
11:04:49 6 1010 201 0 SO 0 68.8 817
11:07:47 6 1010 202 0 O 0 67.1 817
11:10:47 6 1009 202 0 S 0 66.1 812
11:13:46 6 1010 202 0 O 0 66.5 812
11:16:47 6 1010 202 0 SO 0 66.4 811
11:19:48 6 1010 202 0 S 0 63.6 750
11:22:46 6 1010 202 0 O 0 63.1 764
11:25:48 7 1010 202 0 S 0 64.1 766
11:28:49 7 1010 203 0 SO 0 62.4 765
11:31:46 7 1010 203 0 N 0 61.9 764
11:34:50 7 1010 203 0 N 0 60.1 760
11:37:46 7 1010 203 0 SW 0 60.6 758
11:40:49 7 1010 203 0 SO 0 60.1 758
11:43:49 8 1010 204 0 SO 0 60.8 756
11:46:48 9 1010 204 0 S 0 56.5 761
11:49:48 10 1010 204 0 SO 0 55.7 761
11:52:48 10 1010 205 0 NW 0 48.5 762
11:55:48 10 1010 205 0 SO 0 54.5 749
11:58:47 10 1009 205 0 SW 0 54.7 741
12:01:48 12 1010 206 0 NW 0 45.5 746
12:04:31 9 1009 206 0 S 0 40 752
12:07:47 12 1010 206 0 NO 0 44.4 767
12:10:54 11 1010 207 0 O 0 46.8 771
12:13:47 12 1010 208 0 NO 0 47.3 770
12:16:50 12 1010 208 0 N 0 44.4 769
12:19:49 12 1010 209 0 SO 0 44.7 746
12:22:48 13 1009 210 0 W 0 44 732
12:25:50 13 1009 211 0 SO 0 43.3 735
12:28:49 13 1010 165 0 SO 0 43.9 545
12:31:47 13 1010 165 0 NO 0 44.3 405
12:34:47 13 1009 167 0 SO 0 41.7 406
12:37:51 12 1009 165 0 SW 0 38.8 405
12:40:48 12 1010 166 0 O 0 40 404
12:43:48 11 1010 166 0 SW 0 40.1 407
12:46:45 11 1010 168 0 O 0 40.1 407
12:49:49 11 1010 175 0 SO 0 40.2 404
12:52:47 11 1009 180 0 N 0 39.8 407
12:55:48 11 1010 182 0 NO 0 40.5 408
12:58:49 11 1010 184 0 SW 0 39.8 405
13:01:48 10 1010 186 0 W 0 41.4 407
13:04:48 11 1010 187 0 SO 0 41.2 407
13:07:52 11 1010 226 0 SO 0 41.8 407
13:10:48 11 1010 226 0 S 0 40.8 404
13:13:48 11 1009 227 0 SO 0 40.4 407
13:16:49 11 1010 227 0 SO 0 43 404
13:19:48 12 1009 227 0 S 0 43.2 407
13:22:49 13 1010 227 0 SO 0 41.5 404
13:25:32 11 1009 227 0 O 0 40 404
13:28:48 12 1010 228 0 SO 0 37.1 404
13:31:49 12 1009 227 0 SO 0 38 404
13:34:46 11 1010 228 0 O 0 38.4 407
13:37:46 12 1009 228 0 N 0 40.7 407
13:40:47 13 1009 228 0 O 0 41.4 406
13:43:47 14 1010 229 0 O 0 39.1 404
13:46:48 14 1010 232 0 SO 0 38.7 407
13:49:50 14 1009 234 0 S 0 38.6 407
13:52:47 15 1009 235 0 W 0 37 406
13:55:48 15 1009 235 0 SO 0 35.2 410
13:58:49 15 1009 241 0 SO 0 34.9 413
14:01:49 15 1009 242 0 SO 0 34.9 418
14:04:49 15 1009 243 0 SO 0 35.3 422
14:07:49 14 1010 243 0 NO 0 36.1 428
14:10:46 14 1009 244 0 SO 0 36.1 430
14:13:46 14 1009 244 0 S 0 37.9 433
14:16:48 14 1009 244 0 NO 0 38.6 433
14:19:47 14 1009 245 0 SO 0 37.5 439
14:22:47 14 1010 245 0 SO 0 37.8 448
14:25:47 14 1009 245 0 S 0 37.5 463
14:28:49 14 1008 245 0 SO 0 36.8 471
14:31:49 14 1009 245 0 S 0 36.6 474
14:34:48 14 1008 245 0 SO 0 36.1 474
14:37:51 14 1009 245 0 SO 0 36.9 480
14:40:48 14 1009 245 0 O 0 37.8 480
14:43:47 14 1009 245 0 O 0 37.3 486
14:46:49 13 1009 246 0 N 0 37.1 489
14:49:53 13 1009 246 0 SO 0 38.3 490
14:52:48 14 1009 246 0 SO 0 38.4 494
14:55:48 14 1009 246 0 S 0 37.2 500
14:58:49 14 1009 246 0 SO 0 36.3 506
15:01:49 14 1009 246 0 SO 0 36.3 512
15:04:49 14 1009 246 0 SW 0 36.5 522
15:07:47 14 1009 246 0 S 0 37.6 526
15:10:48 14 1009 246 0 SW 0 37.4 532
15:13:46 14 1009 247 0 W 0 37.4 536
15:16:49 14 1009 246 0 NW 0 36.3 534
15:19:48 14 1009 246 0 NO 0 36.6 541
15:22:50 13 1009 247 0 NO 0 37.3 538
15:25:49 13 1008 246 0 O 0 38.5 536
15:28:50 12 1008 246 0 O 0 38.4 541
15:31:46 12 1008 244 0 O 0 38.4 544
15:34:51 12 1009 244 0 SW 0 38.7 548
15:37:47 12 1009 240 0 NO 0 39.3 547
15:40:48 11 1009 234 0 NO 0 38.5 552
15:43:48 12 1008 236 0 SO 0 38.5 553
15:46:46 12 1009 240 0 S 0 39.7 560
15:49:47 11 1009 238 0 O 0 39.8 559
15:52:48 11 1009 236 0 SO 0 40.1 571
15:55:48 11 1009 229 0 SO 0 40.4 577
15:58:47 11 1008 220 0 S 0 41 579
16:01:47 11 1009 229 0 S 0 41.6 574
16:04:51 11 1009 221 0 SO 0 41.6 574
16:07:47 11 1009 226 0 S 0 41.3 562
16:10:51 11 1008 221 0 SO 0 41 574
16:13:48 11 1009 225 0 S 0 41.4 565
16:16:48 11 1008 225 0 NO 0 41.3 576
16:19:49 11 1008 221 0 SO 0 40.8 574
16:22:47 11 1008 217 0 S 0 41.2 575
16:25:51 11 1008 219 0 SO 0 41 562
16:28:48 11 1008 222 0 SO 0 41.2 542
16:31:46 10 1008 226 0 S 0 42.2 544
16:34:48 10 1009 230 0 SO 0 42.4 547
16:37:48 10 1008 233 0 NO 0 42.8 547
16:40:47 10 1008 229 0 S 0 43 544
16:43:47 10 1008 210 0 S 0 43.7 537
16:46:50 10 1008 213 0 SO 0 43.3 530
16:49:48 10 1008 219 0 SO 0 43.1 527
16:52:49 10 1009 215 0 SO 0 43.3 530
16:55:50 10 1008 221 0 SO 0 42.9 536
16:58:47 9 1008 211 0 SO 0 42.9 530
17:01:47 9 1009 220 0 SO 0 43.1 527
17:04:48 9 1009 214 0 O 0 44 524
17:07:49 8 1008 218 0 SO 0 45.3 521
17:10:48 8 1009 202 0 SO 0 45.8 515
17:13:49 8 1008 197 0 SO 0 45.9 518
17:16:47 8 1008 195 0 SW 0 45.9 521
17:19:49 8 1009 194 0 SO 0 46.2 521
17:22:48 8 1008 192 0 SO 0 46.4 521
17:25:45 8 1008 190 0 S 0 46.9 512
17:28:48 7 1008 188 0 S 0 47.2 509
17:31:49 7 1009 186 0 SO 0 47.6 509
17:34:48 7 1009 184 0 SO 0 48.2 515
17:37:48 7 1008 181 0 N 0 48.7 521
17:40:47 7 1008 178 0 S 0 49.7 518
17:43:47 6 1009 175 0 NO 0 50.4 512
17:46:47 6 1009 171 0 SO 0 50.8 509
17:49:49 6 1008 167 0 NO 0 51.3 512
17:52:48 6 1008 162 0 SW 0 51.7 506
17:55:48 6 1009 155 0 SO 0 51.9 507
17:58:50 6 1009 148 0 NO 0 52.5 506
18:01:49 5 1009 139 0 NO 0 52.7 495
18:04:47 5 1009 130 0 NO 0 53.1 492
18:07:49 5 1009 119 0 NO 0 53.3 491
18:10:49 5 1009 106 0 NO 0 53.6 489
18:13:48 5 1009 92 0 NO 0 54 488
18:16:46 5 1009 78 0 NO 0 54.5 489
18:19:48 5 1009 62 0 SO 0 54.9 483
18:22:47 4 1009 47 0 NW 0 55.2 482
18:25:44 4 1008 34 0 O 0 55.7 477
18:28:48 4 1009 23 0 SO 0 55.4 477
18:31:46 4 1009 14 0 SO 0 55.5 471
18:34:48 4 1009 9 0 SO 0 56.2 471
18:37:48 4 1009 0 0 SO 0 56.9 447
18:40:46 4 1009 0 0 SO 0 57.5 407
18:43:48 4 1009 0 0 SO 0 58.3 404
18:46:47 4 1008 0 0 SO 0 58.5 401
18:49:48 4 1008 0 0 NW 0 58.8 407
18:52:46 4 1008 0 0 SO 0 58.8 407
18:55:48 3 1009 0 0 SO 0 59.4 407
18:58:46 3 1009 0 0 NO 0 59.5 407
19:01:47 3 1009 0 0 N 0 60 407
19:04:44 3 1009 0 0 N 0 60.1 405
19:07:46 3 1009 0 0 N 0 61.6 407
19:10:48 3 1009 0 0 N 0 61.7 404
19:13:47 2 1009 0 0 N 0 62.1 404
19:16:44 2 1010 0 0 N 0 62.3 407
19:19:46 2 1009 0 0 N 0 62.7 404
19:22:47 2 1009 0 0 N 0 63 404
19:25:44 2 1009 0 0 N 0 63.4 407
19:28:48 1 1009 0 0 N 0 64 408
19:31:48 1 1009 0 0 N 0 64.9 403
19:34:45 1 1009 0 0 N 0 65.5 410
19:37:47 1 1009 0 0 N 0 65.9 407
19:40:47 1 1009 0 0 N 0 66.4 413
19:43:46 1 1009 0 0 N 0 66.9 428
19:46:47 1 1009 0 0 N 0 68 433
19:49:49 1 1009 0 0 N 0 68.3 430
19:52:44 1 1009 0 0 N 0 68.4 424
19:55:49 0 1009 0 0 N 0 68.4 431
19:58:46 0 1009 0 0 N 0 68.3 431
20:01:49 0 1009 0 0 N 0 69 430
20:04:47 0 1009 0 0 N 0 69.6 439
20:07:44 0 1009 0 0 N 0 70.4 444
20:10:46 0 1009 0 0 N 0 70.4 448
20:13:46 0 1009 0 0 N 0 70.3 453
20:16:48 0 1009 0 0 N 0 70.4 465
20:19:46 0 1009 0 0 N 0 70.7 471
20:22:47 0 1009 0 0 N 0 71 471
20:25:46 0 1009 0 0 N 0 71.6 466
20:28:48 0 1009 0 0 N 0 72.9 466
20:31:46 0 1009 0 0 N 0 72.9 471
20:34:48 0 1009 0 0 N 0 72.7 466
20:37:46 0 1008 0 0 N 0 72.3 471
20:40:47 0 1009 0 0 N 0 72 477
20:43:47 0 1009 0 0 O 0 72.6 483
20:46:46 0 1009 0 0 O 0 73.1 484
20:49:48 0 1009 0 0 SO 0 73.1 489
20:52:46 0 1009 0 0 O 0 73.4 492
20:55:46 0 1009 0 0 N 0 74 489
20:58:45 0 1009 0 0 N 0 74.7 476
21:01:45 0 1009 0 0 N 0 75.2 474
21:04:47 0 1009 0 0 N 0 75.3 499
21:07:47 0 1009 0 0 N 0 75 503
21:10:47 0 1009 0 0 N 0 75.4 507
21:13:46 0 1009 0 0 N 0 75.4 504
21:16:45 -1 1010 0 0 N 0 75.5 506
21:19:45 -1 1009 0 0 N 0 76 503
21:22:48 -1 1009 0 0 N 0 75.9 507
21:25:45 -1 1009 0 0 N 0 75.8 509
21:28:47 -1 1008 0 0 N 0 76.1 506
21:31:45 -1 1009 0 0 N 0 76.4 509
21:34:47 -1 1009 0 0 N 0 76.7 513
21:37:46 -1 1009 0 0 N 0 76.7 518
21:40:44 -1 1009 0 0 N 0 76.9 524
21:43:47 -1 1009 0 0 N 0 77.5 530
21:46:46 -1 1009 0 0 N 0 78 529
21:49:48 -2 1009 0 0 SO 0 77.9 532
21:52:47 -1 1009 0 0 SO 0 78.4 530
21:55:47 -1 1008 0 0 SO 0 78.9 532
21:58:47 -1 1008 0 0 SO 0 78.6 536
22:01:48 -2 1009 0 0 SO 0 78.3 539
22:04:47 -2 1009 0 0 SO 0 78.4 541
22:07:47 -1 1008 0 0 SO 0 79.1 536
22:10:47 -1 1009 0 0 SO 0 79 544
22:13:49 -2 1008 0 0 SO 0 79.1 542
22:16:48 -2 1008 0 0 SO 0 79.2 554
22:19:46 -2 1009 0 0 SO 0 79.5 550
22:22:47 -2 1009 0 0 SO 0 79.8 548
22:25:46 -2 1009 0 0 SO 0 79.7 553
22:28:49 -2 1009 0 0 SO 0 80.1 560
22:31:47 -2 1009 0 0 SO 0 80.8 559
22:34:47 -2 1009 0 0 SO 0 80.7 553
22:37:51 -2 1009 0 0 SO 0 80.3 548
22:40:47 -2 1009 0 0 SO 0 80.4 554
22:43:48 -2 1009 0 0 SO 0 80.7 562
22:46:47 -2 1009 0 0 SO 0 80.9 563
22:49:51 -2 1008 0 0 SO 0 80.7 567
22:52:49 -2 1009 0 0 SO 0 80.9 568
22:55:48 -2 1009 0 0 SO 0 81 571
22:58:48 -2 1009 0 0 SO 0 80.9 577
23:01:47 -2 1009 0 0 SO 0 81.4 577
23:04:50 -1 1009 0 0 SO 0 81.7 583
23:07:47 -1 1009 0 0 NO 0 81.6 582
23:10:47 -2 1009 0 0 NO 0 80.8 580
23:13:48 -2 1009 0 0 SO 0 80.8 583
23:16:47 -2 1009 0 0 SO 0 80.9 583
23:19:48 -2 1009 0 0 SO 0 81 582
23:22:47 -2 1009 0 0 SO 0 81.3 580
23:25:47 -2 1009 0 0 W 0 81.4 585
23:28:46 -2 1009 0 0 N 0 81.3 594
23:31:47 -2 1009 0 0 N 0 81.2 597
23:34:47 -2 1010 0 0 O 0 81.3 603
23:37:45 -2 1009 0 0 O 0 81.3 600
23:40:47 -2 1009 0 0 O 0 81.1 595
23:43:47 -2 1009 0 0 O 0 81.1 592
23:46:47 -2 1009 0 0 O 0 81.1 591
23:49:48 -2 1009 0 0 O 0 81.2 588
23:52:46 -2 1009 0 0 O 0 81.3 580
23:55:46 -2 1009 0 0 O 0 81.6 576
23:58:46 -2 1009 0 0 O 0 81.6 571

Letzte Änderung : 04-Jan-2022
Copyright Jens Köhler, Wolfsburg, Obere Dorfstraße 10d